Time,TemperatureF,DewpointF,PressureIn,WindDirection,WindDirectionDegrees,WindSpeedMPH,WindSpeedGustMPH,Humidity,HourlyPrecipIn,Conditions,Clouds,dailyrainin,SoftwareType,DateUTC
2013-01-02 00:10:00,31.2,7.9,30.37,ENE,69,1.0,1.0,37,0.00,,,0.00,Wunderground v.1.15,2013-01-02 08:10:00,
2013-01-02 00:20:00,31.0,7.7,30.37,ENE,69,1.0,10.0,37,0.00,,,0.00,Wunderground v.1.15,2013-01-02 08:20:00,
2013-01-02 00:29:00,32.4,8.4,30.36,ENE,69,3.0,10.0,36,0.00,,,0.00,Wunderground v.1.15,2013-01-02 08:29:00,
2013-01-02 00:40:00,31.3,8.0,30.36,ENE,69,3.0,3.0,37,0.00,,,0.00,Wunderground v.1.15,2013-01-02 08:40:00,
2013-01-02 00:49:00,32.5,8.5,30.36,ENE,69,0.0,10.0,36,0.00,,,0.00,Wunderground v.1.15,2013-01-02 08:49:00,
2013-01-02 00:59:00,32.3,8.3,30.36,ENE,69,1.0,10.0,36,0.00,,,0.00,Wunderground v.1.15,2013-01-02 08:59:00,
2013-01-02 01:10:00,30.7,7.5,30.36,ENE,69,4.0,10.0,37,0.00,,,0.00,Wunderground v.1.15,2013-01-02 09:10:00,
2013-01-02 01:19:00,30.6,8.0,30.36,ENE,69,4.0,10.0,38,0.00,,,0.00,Wunderground v.1.15,2013-01-02 09:19:00,
2013-01-02 01:29:00,27.8,6.6,30.36,ENE,69,6.0,6.0,40,0.00,,,0.00,Wunderground v.1.15,2013-01-02 09:29:00,
2013-01-02 01:40:00,28.2,7.5,30.37,ENE,69,4.0,10.0,41,0.00,,,0.00,Wunderground v.1.15,2013-01-02 09:40:00,
2013-01-02 01:49:00,28.9,7.0,30.36,ENE,69,1.0,1.0,39,0.00,,,0.00,Wunderground v.1.15,2013-01-02 09:49:00,
2013-01-02 02:00:00,26.9,5.8,30.37,ENE,69,1.0,10.0,40,0.00,,,0.00,Wunderground v.1.15,2013-01-02 10:00:00,
2013-01-02 02:10:00,24.9,5.5,30.37,ENE,69,2.0,2.0,43,0.00,,,0.00,Wunderground v.1.15,2013-01-02 10:10:00,
2013-01-02 02:19:00,24.9,6.0,30.38,ENE,69,0.0,10.0,44,0.00,,,0.00,Wunderground v.1.15,2013-01-02 10:19:00,
2013-01-02 02:30:00,25.1,6.2,30.37,ENE,69,3.0,10.0,44,0.00,,,0.00,Wunderground v.1.15,2013-01-02 10:30:00,
2013-01-02 02:40:00,27.2,7.6,30.37,ENE,69,5.0,5.0,43,0.00,,,0.00,Wunderground v.1.15,2013-01-02 10:40:00,
2013-01-02 02:50:00,27.5,7.4,30.37,ENE,69,4.0,4.0,42,0.00,,,0.00,Wunderground v.1.15,2013-01-02 10:50:00,
2013-01-02 02:59:00,27.3,6.7,30.37,ENE,69,2.0,10.0,41,0.00,,,0.00,Wunderground v.1.15,2013-01-02 10:59:00,
2013-01-02 03:10:00,23.5,4.8,30.37,ENE,67,4.0,4.0,44,0.00,,,0.00,Wunderground v.1.15,2013-01-02 11:10:00,
2013-01-02 03:19:00,24.0,5.7,30.37,ENE,67,1.0,10.0,45,0.00,,,0.00,Wunderground v.1.15,2013-01-02 11:19:00,
2013-01-02 03:30:00,25.0,6.1,30.36,ENE,69,3.0,3.0,44,0.00,,,0.00,Wunderground v.1.15,2013-01-02 11:30:00,
2013-01-02 03:40:00,26.1,6.6,30.36,ENE,71,5.0,5.0,43,0.00,,,0.00,Wunderground v.1.15,2013-01-02 11:40:00,
2013-01-02 03:49:00,26.2,5.7,30.36,ENE,71,4.0,10.0,41,0.00,,,0.00,Wunderground v.1.15,2013-01-02 11:49:00,
2013-01-02 04:00:00,27.1,7.5,30.36,ENE,71,3.0,3.0,43,0.00,,,0.00,Wunderground v.1.15,2013-01-02 12:00:00,
2013-01-02 04:10:00,27.1,7.0,30.36,ENE,71,1.0,10.0,42,0.00,,,0.00,Wunderground v.1.15,2013-01-02 12:10:00,
2013-01-02 04:19:00,24.4,5.1,30.36,ENE,71,1.0,1.0,43,0.00,,,0.00,Wunderground v.1.15,2013-01-02 12:19:00,
2013-01-02 04:29:00,23.1,4.9,30.36,ENE,71,0.0,10.0,45,0.00,,,0.00,Wunderground v.1.15,2013-01-02 12:29:00,
2013-01-02 04:40:00,21.4,4.3,30.35,ENE,73,4.0,10.0,47,0.00,,,0.00,Wunderground v.1.15,2013-01-02 12:40:00,
2013-01-02 04:50:00,21.5,4.4,30.36,ENE,77,5.0,10.0,47,0.00,,,0.00,Wunderground v.1.15,2013-01-02 12:50:00,
2013-01-02 04:59:00,22.5,5.3,30.35,East,88,7.0,10.0,47,0.00,,,0.00,Wunderground v.1.15,2013-01-02 12:59:00,
2013-01-02 05:09:00,25.3,6.9,30.35,East,88,6.0,10.0,45,0.00,,,0.00,Wunderground v.1.15,2013-01-02 13:09:00,
2013-01-02 05:20:00,24.0,6.7,30.35,East,88,6.0,6.0,47,0.00,,,0.00,Wunderground v.1.15,2013-01-02 13:20:00,
2013-01-02 05:29:00,24.2,6.8,30.35,East,88,5.0,5.0,47,0.00,,,0.00,Wunderground v.1.15,2013-01-02 13:29:00,
2013-01-02 05:40:00,25.8,6.9,30.35,East,88,4.0,4.0,44,0.00,,,0.00,Wunderground v.1.15,2013-01-02 13:40:00,
2013-01-02 05:50:00,25.7,6.3,30.36,East,88,2.0,10.0,43,0.00,,,0.00,Wunderground v.1.15,2013-01-02 13:50:00,
2013-01-02 06:00:00,23.3,4.6,30.36,East,88,1.0,1.0,44,0.00,,,0.00,Wunderground v.1.15,2013-01-02 14:00:00,
2013-01-02 06:10:00,22.7,5.9,30.36,East,88,1.0,10.0,48,0.00,,,0.00,Wunderground v.1.15,2013-01-02 14:10:00,
2013-01-02 06:20:00,24.3,6.5,30.35,East,88,2.0,10.0,46,0.00,,,0.00,Wunderground v.1.15,2013-01-02 14:20:00,
2013-01-02 06:30:00,24.2,6.4,30.36,East,88,2.0,2.0,46,0.00,,,0.00,Wunderground v.1.15,2013-01-02 14:30:00,
2013-01-02 06:39:00,24.7,6.3,30.35,East,88,1.0,10.0,45,0.00,,,0.00,Wunderground v.1.15,2013-01-02 14:39:00,
2013-01-02 06:50:00,23.9,4.6,30.35,East,88,3.0,10.0,43,0.00,,,0.00,Wunderground v.1.15,2013-01-02 14:50:00,
2013-01-02 07:00:00,23.6,6.3,30.35,East,88,2.0,2.0,47,0.00,,,0.00,Wunderground v.1.15,2013-01-02 15:00:00,
2013-01-02 07:09:00,24.9,6.5,30.36,East,88,1.0,10.0,45,0.00,,,0.00,Wunderground v.1.15,2013-01-02 15:09:00,
2013-01-02 07:20:00,20.6,3.5,30.36,East,88,2.0,2.0,47,0.00,,,0.00,Wunderground v.1.15,2013-01-02 15:20:00,
2013-01-02 07:29:00,18.8,2.8,30.37,East,88,2.0,10.0,49,0.00,,,0.00,Wunderground v.1.15,2013-01-02 15:29:00,
2013-01-02 07:40:00,18.2,3.1,30.37,East,88,2.0,2.0,51,0.00,,,0.00,Wunderground v.1.15,2013-01-02 15:40:00,
2013-01-02 07:49:00,19.3,3.7,30.36,East,88,1.0,10.0,50,0.00,,,0.00,Wunderground v.1.15,2013-01-02 15:49:00,
2013-01-02 08:00:00,21.3,5.1,30.37,East,88,1.0,10.0,49,0.00,,,0.00,Wunderground v.1.15,2013-01-02 16:00:00,
2013-01-02 08:10:00,23.0,5.7,30.36,East,88,0.0,10.0,47,0.00,,,0.00,Wunderground v.1.15,2013-01-02 16:10:00,
2013-01-02 08:19:00,24.7,6.3,30.36,East,88,0.0,10.0,45,0.00,,,0.00,Wunderground v.1.15,2013-01-02 16:19:00,
2013-01-02 08:30:00,24.9,6.0,30.35,East,88,1.0,10.0,44,0.00,,,0.00,Wunderground v.1.15,2013-01-02 16:30:00,
2013-01-02 08:40:00,25.4,6.5,30.34,East,88,0.0,10.0,44,0.00,,,0.00,Wunderground v.1.15,2013-01-02 16:40:00,
2013-01-02 08:50:00,25.6,6.2,30.34,East,88,1.0,1.0,43,0.00,,,0.00,Wunderground v.1.15,2013-01-02 16:50:00,
2013-01-02 09:00:00,25.8,6.3,30.34,East,88,0.0,10.0,43,0.00,,,0.00,Wunderground v.1.15,2013-01-02 17:00:00,
2013-01-02 09:10:00,26.5,6.5,30.33,East,88,0.0,10.0,42,0.00,,,0.00,Wunderground v.1.15,2013-01-02 17:10:00,
2013-01-02 09:20:00,27.8,7.1,30.33,East,88,0.0,10.0,41,0.00,,,0.00,Wunderground v.1.15,2013-01-02 17:20:00,
2013-01-02 09:30:00,28.7,7.4,30.32,East,88,0.0,10.0,40,0.00,,,0.00,Wunderground v.1.15,2013-01-02 17:30:00,
2013-01-02 09:40:00,29.8,7.8,30.32,East,88,0.0,10.0,39,0.00,,,0.00,Wunderground v.1.15,2013-01-02 17:40:00,
2013-01-02 09:50:00,30.2,8.2,30.31,East,88,2.0,10.0,39,0.00,,,0.00,Wunderground v.1.15,2013-01-02 17:50:00,
2013-01-02 10:00:00,31.7,9.0,30.30,East,88,1.0,1.0,38,0.00,,,0.00,Wunderground v.1.15,2013-01-02 18:00:00,
2013-01-02 10:10:00,33.4,9.9,30.30,East,88,0.0,10.0,37,0.00,,,0.00,Wunderground v.1.15,2013-01-02 18:10:00,
2013-01-02 10:19:00,34.7,9.8,30.30,East,88,1.0,10.0,35,0.00,,,0.00,Wunderground v.1.15,2013-01-02 18:19:00,
2013-01-02 10:30:00,34.8,9.9,30.29,East,90,3.0,10.0,35,0.00,,,0.00,Wunderground v.1.15,2013-01-02 18:30:00,
2013-01-02 10:40:00,35.3,10.3,30.28,East,90,2.0,2.0,35,0.00,,,0.00,Wunderground v.1.15,2013-01-02 18:40:00,
2013-01-02 10:49:00,37.1,11.3,30.28,East,90,0.0,10.0,34,0.00,,,0.00,Wunderground v.1.15,2013-01-02 18:49:00,
2013-01-02 11:00:00,37.9,11.3,30.27,East,90,4.0,4.0,33,0.00,,,0.00,Wunderground v.1.15,2013-01-02 19:00:00,
2013-01-02 11:10:00,38.1,11.5,30.26,ESE,122,4.0,10.0,33,0.00,,,0.00,Wunderground v.1.15,2013-01-02 19:10:00,
2013-01-02 11:19:00,38.5,11.1,30.26,SE,127,4.0,10.0,32,0.00,,,0.00,Wunderground v.1.15,2013-01-02 19:19:00,
2013-01-02 11:30:00,39.4,11.2,30.25,SE,134,4.0,4.0,31,0.00,,,0.00,Wunderground v.1.15,2013-01-02 19:30:00,
2013-01-02 11:40:00,40.6,11.5,30.25,SE,134,4.0,10.0,30,0.00,,,0.00,Wunderground v.1.15,2013-01-02 19:40:00,
2013-01-02 11:49:00,41.5,12.3,30.24,SE,143,5.0,5.0,30,0.00,,,0.00,Wunderground v.1.15,2013-01-02 19:49:00,
2013-01-02 12:00:00,43.0,12.9,30.23,SE,143,4.0,10.0,29,0.00,,,0.00,Wunderground v.1.15,2013-01-02 20:00:00,
2013-01-02 12:10:00,44.1,13.0,30.23,SE,144,4.0,10.0,28,0.00,,,0.00,Wunderground v.1.15,2013-01-02 20:10:00,
2013-01-02 12:19:00,45.0,13.0,30.22,SE,144,4.0,4.0,27,0.00,,,0.00,Wunderground v.1.15,2013-01-02 20:19:00,
2013-01-02 12:30:00,46.5,13.4,30.21,SE,144,3.0,10.0,26,0.00,,,0.00,Wunderground v.1.15,2013-01-02 20:30:00,
2013-01-02 12:40:00,47.3,14.1,30.20,SE,144,3.0,10.0,26,0.00,,,0.00,Wunderground v.1.15,2013-01-02 20:40:00,
2013-01-02 12:49:00,47.9,14.6,30.20,SE,145,3.0,3.0,26,0.00,,,0.00,Wunderground v.1.15,2013-01-02 20:49:00,
2013-01-02 13:00:00,48.4,14.1,30.19,SE,146,3.0,10.0,25,0.00,,,0.00,Wunderground v.1.15,2013-01-02 21:00:00,
2013-01-02 13:10:00,49.6,14.2,30.19,SSE,147,2.0,10.0,24,0.00,,,0.00,Wunderground v.1.15,2013-01-02 21:10:00,
2013-01-02 13:19:00,50.1,14.7,30.18,SSE,152,4.0,4.0,24,0.00,,,0.00,Wunderground v.1.15,2013-01-02 21:19:00,
2013-01-02 13:30:00,51.3,14.7,30.18,SSE,153,2.0,10.0,23,0.00,,,0.00,Wunderground v.1.15,2013-01-02 21:30:00,
2013-01-02 13:39:00,51.5,14.9,30.18,SSE,155,4.0,4.0,23,0.00,,,0.00,Wunderground v.1.15,2013-01-02 21:39:00,
2013-01-02 13:50:00,51.8,14.1,30.18,SSE,165,4.0,10.0,22,0.00,,,0.00,Wunderground v.1.15,2013-01-02 21:50:00,
2013-01-02 14:00:00,52.5,14.7,30.18,SSE,165,4.0,10.0,22,0.00,,,0.00,Wunderground v.1.15,2013-01-02 22:00:00,
2013-01-02 14:10:00,53.5,14.5,30.17,SSE,165,2.0,10.0,21,0.00,,,0.00,Wunderground v.1.15,2013-01-02 22:10:00,
2013-01-02 14:20:00,54.1,15.0,30.17,SSE,166,3.0,3.0,21,0.00,,,0.00,Wunderground v.1.15,2013-01-02 22:20:00,
2013-01-02 14:29:00,54.6,15.4,30.17,SSE,165,2.0,2.0,21,0.00,,,0.00,Wunderground v.1.15,2013-01-02 22:29:00,
2013-01-02 14:40:00,55.2,14.8,30.16,SSE,165,1.0,1.0,20,0.00,,,0.00,Wunderground v.1.15,2013-01-02 22:40:00,
2013-01-02 14:49:00,55.9,15.3,30.16,SSE,166,0.0,10.0,20,0.00,,,0.00,Wunderground v.1.15,2013-01-02 22:49:00,
2013-01-02 15:00:00,56.0,15.4,30.16,SSE,166,0.0,10.0,20,0.00,,,0.00,Wunderground v.1.15,2013-01-02 23:00:00,
2013-01-02 15:10:00,57.0,15.1,30.17,SSE,166,0.0,10.0,19,0.00,,,0.00,Wunderground v.1.15,2013-01-02 23:10:00,
2013-01-02 15:19:00,56.4,15.8,30.16,SSE,165,3.0,10.0,20,0.00,,,0.00,Wunderground v.1.15,2013-01-02 23:19:00,
2013-01-02 15:29:00,56.2,15.6,30.17,SSE,165,4.0,10.0,20,0.00,,,0.00,Wunderground v.1.15,2013-01-02 23:29:00,
2013-01-02 15:40:00,55.6,15.1,30.17,South,182,7.0,10.0,20,0.00,,,0.00,Wunderground v.1.15,2013-01-02 23:40:00,
2013-01-02 15:50:00,55.5,15.0,30.17,South,182,6.0,10.0,20,0.00,,,0.00,Wunderground v.1.15,2013-01-02 23:50:00,
2013-01-02 15:59:00,55.2,14.8,30.17,South,182,6.0,10.0,20,0.00,,,0.00,Wunderground v.1.15,2013-01-02 23:59:00,
2013-01-02 16:10:00,55.0,15.7,30.17,South,182,5.0,10.0,21,0.00,,,0.00,Wunderground v.1.15,2013-01-03 00:10:00,
2013-01-02 16:20:00,54.1,15.0,30.17,South,186,7.0,7.0,21,0.00,,,0.00,Wunderground v.1.15,2013-01-03 00:20:00,
2013-01-02 16:29:00,53.4,14.4,30.17,South,186,6.0,10.0,21,0.00,,,0.00,Wunderground v.1.15,2013-01-03 00:29:00,
2013-01-02 16:40:00,52.7,14.9,30.18,South,186,4.0,4.0,22,0.00,,,0.00,Wunderground v.1.15,2013-01-03 00:40:00,
2013-01-02 16:50:00,51.6,13.9,30.18,South,186,2.0,10.0,22,0.00,,,0.00,Wunderground v.1.15,2013-01-03 00:50:00,
2013-01-02 16:59:00,50.4,13.9,30.18,South,186,1.0,10.0,23,0.00,,,0.00,Wunderground v.1.15,2013-01-03 00:59:00,
2013-01-02 17:09:00,49.2,12.9,30.18,South,186,4.0,10.0,23,0.00,,,0.00,Wunderground v.1.15,2013-01-03 01:09:00,
2013-01-02 17:20:00,46.7,11.8,30.19,South,186,5.0,10.0,24,0.00,,,0.00,Wunderground v.1.15,2013-01-03 01:20:00,
2013-01-02 17:30:00,46.3,11.4,30.19,South,186,7.0,10.0,24,0.00,,,0.00,Wunderground v.1.15,2013-01-03 01:30:00,
2013-01-02 17:39:00,44.6,11.8,30.19,South,185,8.0,8.0,26,0.00,,,0.00,Wunderground v.1.15,2013-01-03 01:39:00,
2013-01-02 17:50:00,43.4,11.6,30.19,South,185,8.0,10.0,27,0.00,,,0.00,Wunderground v.1.15,2013-01-03 01:50:00,
2013-01-02 18:00:00,43.2,11.4,30.20,South,184,7.0,7.0,27,0.00,,,0.00,Wunderground v.1.15,2013-01-03 02:00:00,
2013-01-02 18:10:00,42.7,11.8,30.20,South,184,8.0,10.0,28,0.00,,,0.00,Wunderground v.1.15,2013-01-03 02:10:00,
2013-01-02 18:20:00,42.6,11.7,30.21,South,184,9.0,9.0,28,0.00,,,0.00,Wunderground v.1.15,2013-01-03 02:20:00,
2013-01-02 18:30:00,41.9,11.9,30.21,South,184,6.0,6.0,29,0.00,,,0.00,Wunderground v.1.15,2013-01-03 02:30:00,
2013-01-02 18:40:00,42.1,11.3,30.22,South,184,1.0,10.0,28,0.00,,,0.00,Wunderground v.1.15,2013-01-03 02:40:00,
2013-01-02 18:49:00,41.9,11.1,30.22,South,184,3.0,3.0,28,0.00,,,0.00,Wunderground v.1.15,2013-01-03 02:49:00,
2013-01-02 19:00:00,42.1,11.3,30.22,South,184,4.0,10.0,28,0.00,,,0.00,Wunderground v.1.15,2013-01-03 03:00:00,
2013-01-02 19:10:00,40.4,10.6,30.22,South,184,6.0,10.0,29,0.00,,,0.00,Wunderground v.1.15,2013-01-03 03:10:00,
2013-01-02 19:19:00,39.9,10.9,30.22,South,184,6.0,6.0,30,0.00,,,0.00,Wunderground v.1.15,2013-01-03 03:19:00,
2013-01-02 19:30:00,40.8,10.9,30.22,South,184,5.0,5.0,29,0.00,,,0.00,Wunderground v.1.15,2013-01-03 03:30:00,
2013-01-02 19:50:00,41.3,10.6,30.22,South,184,3.0,10.0,28,0.00,,,0.00,Wunderground v.1.15,2013-01-03 03:50:00,
2013-01-02 20:00:00,41.5,10.8,30.23,South,184,3.0,10.0,28,0.00,,,0.00,Wunderground v.1.15,2013-01-03 04:00:00,
2013-01-02 20:09:00,40.4,10.6,30.23,South,184,2.0,10.0,29,0.00,,,0.00,Wunderground v.1.15,2013-01-03 04:09:00,
2013-01-02 20:20:00,39.2,10.3,30.23,South,184,0.0,10.0,30,0.00,,,0.00,Wunderground v.1.15,2013-01-03 04:20:00,
2013-01-02 20:29:00,39.0,10.1,30.23,South,184,0.0,10.0,30,0.00,,,0.00,Wunderground v.1.15,2013-01-03 04:29:00,
2013-01-02 20:39:00,38.4,9.6,30.23,South,184,1.0,10.0,30,0.00,,,0.00,Wunderground v.1.15,2013-01-03 04:39:00,
2013-01-02 20:50:00,39.3,10.4,30.23,South,184,2.0,10.0,30,0.00,,,0.00,Wunderground v.1.15,2013-01-03 04:50:00,
2013-01-02 20:59:00,39.7,10.7,30.23,South,184,3.0,10.0,30,0.00,,,0.00,Wunderground v.1.15,2013-01-03 04:59:00,
2013-01-02 21:09:00,40.3,10.5,30.24,South,184,3.0,3.0,29,0.00,,,0.00,Wunderground v.1.15,2013-01-03 05:09:00,
2013-01-02 21:20:00,40.3,10.5,30.24,South,184,1.0,1.0,29,0.00,,,0.00,Wunderground v.1.15,2013-01-03 05:20:00,
2013-01-02 21:30:00,40.0,11.0,30.24,South,184,1.0,10.0,30,0.00,,,0.00,Wunderground v.1.15,2013-01-03 05:30:00,
2013-01-02 21:39:00,40.2,10.4,30.24,South,184,0.0,10.0,29,0.00,,,0.00,Wunderground v.1.15,2013-01-03 05:39:00,
2013-01-02 21:50:00,37.7,9.7,30.25,South,184,2.0,10.0,31,0.00,,,0.00,Wunderground v.1.15,2013-01-03 05:50:00,
2013-01-02 21:59:00,36.7,9.6,30.25,South,184,3.0,10.0,32,0.00,,,0.00,Wunderground v.1.15,2013-01-03 05:59:00,
2013-01-02 22:09:00,37.2,10.0,30.25,South,184,0.0,10.0,32,0.00,,,0.00,Wunderground v.1.15,2013-01-03 06:09:00,
2013-01-02 22:20:00,36.1,9.0,30.25,South,184,0.0,10.0,32,0.00,,,0.00,Wunderground v.1.15,2013-01-03 06:20:00,
2013-01-02 22:30:00,34.8,9.2,30.26,South,184,0.0,10.0,34,0.00,,,0.00,Wunderground v.1.15,2013-01-03 06:30:00,
2013-01-02 22:39:00,34.4,8.9,30.26,South,184,0.0,10.0,34,0.00,,,0.00,Wunderground v.1.15,2013-01-03 06:39:00,
2013-01-02 22:50:00,34.9,9.3,30.26,South,184,2.0,2.0,34,0.00,,,0.00,Wunderground v.1.15,2013-01-03 06:50:00,
2013-01-02 23:00:00,36.2,10.5,30.25,South,184,2.0,10.0,34,0.00,,,0.00,Wunderground v.1.15,2013-01-03 07:00:00,
2013-01-02 23:09:00,36.4,10.0,30.26,South,184,3.0,3.0,33,0.00,,,0.00,Wunderground v.1.15,2013-01-03 07:09:00,
2013-01-02 23:19:00,34.7,9.1,30.25,South,184,1.0,1.0,34,0.00,,,0.00,Wunderground v.1.15,2013-01-03 07:19:00,
2013-01-02 23:30:00,34.1,9.3,30.26,South,184,0.0,10.0,35,0.00,,,0.00,Wunderground v.1.15,2013-01-03 07:30:00,
2013-01-02 23:40:00,34.4,9.5,30.26,South,184,0.0,10.0,35,0.00,,,0.00,Wunderground v.1.15,2013-01-03 07:40:00,
2013-01-02 23:50:00,34.7,9.1,30.26,South,184,0.0,10.0,34,0.00,,,0.00,Wunderground v.1.15,2013-01-03 07:50:00,
2013-01-02 23:59:00,33.1,8.4,30.25,South,184,3.0,10.0,35,0.00,,,0.00,Wunderground v.1.15,2013-01-03 07:59:00,